Weather History for Casper, WY

Change the Weather History Date:

Saturday, November 10, 2012

  Actual Average Record
Temperature  
Mean Temperature 13 °F 36 °F  
Max Temperature 29 °F 48 °F 70 °F (2005)
Min Temperature -3 °F 24 °F -14 °F (1986)
Degree Days  
Heating Degree Days 52 29  
Month to date heating degree days 219 271  
Since 1 July heating degree days 990 1170  
Cooling Degree Days 0 0  
Month to date cooling degree days 0 0  
Year to date cooling degree days 697 422  
Moisture  
Dew Point 13 °F    
Average Humidity 83    
Maximum Humidity 92    
Minimum Humidity 73    
Precipitation  
Precipitation 0.28 in 0.02 in 0.29 in (1955)
Month to date precipitation 0.33 0.29  
Year to date precipitation 7.33 11.56  
Snow  
Snow 4.00 in 0.40 in - ()
Month to date snowfall 4.1 3.2  
Since 1 July snowfall 9.3 12.4  
Since 1 September snowfall 9.3 12.4  
Snow Depth 1.00 in    
Sea Level Pressure  
Sea Level Pressure 29.74 in    
Wind  
Wind Speed 9 mph (NNE)    
Max Wind Speed 14 mph    
Max Gust Speed 24 mph    
Visibility 4 miles    
Events Fog , Rain , Snow    
T = Trace of Precipitation, MM = Missing Value Source: NWS Daily Summary

Daily Weather History Graph

Daily Weather History Graph

Search for Another Location

Airport:

Trip Planner

Search our weather history database for the weather conditions in past years. The results will help you decide how hot, cold, wet, or windy it might be!

Date:

Astronomy

Nov. 10, 2012 Rise Set
Actual Time 6:52 AM MST 4:46 PM MST
Civil Twilight 6:22 AM MST 5:17 PM MST
Nautical Twilight 5:48 AM MST 5:51 PM MST
Astronomical Twilight 5:14 AM MST 6:24 PM MST
Moon 2:55 AM MST (11/10) 2:39 PM MST (11/10)
Length of Visible Light 10h 54m
Length of Day
9h 54m
Waning Crescent, 14% of the Moon is Illuminated
Nov 10
Waning Crescent
Nov 13
New
Nov 20
First Quarter
Nov 28
Full
Dec 6
Last Quarter

Hourly Weather History & Observations

Time (MST) Temp. Windchill Dew Point Humidity Pressure Visibility Wind Dir Wind Speed Gust Speed Precip Events Conditions
12:19 AM 28.4 °F 18.5 °F 24.8 °F 86% 29.61 in 6.0 mi WNW 11.5 mph 19.6 mph 0.00 in Snow Light Snow
12:27 AM 26.6 °F 15.7 °F 24.8 °F 93% 29.60 in 1.8 mi North 12.7 mph - 0.00 in Snow Light Snow
12:41 AM 26.6 °F 15.7 °F 24.8 °F 93% 29.58 in 1.8 mi NNE 12.7 mph - 0.02 in Snow Light Snow
12:53 AM 27.0 °F 17.3 °F 24.1 °F 89% 29.52 in 1.0 mi NNE 10.4 mph - 0.03 in Snow Light Snow
1:00 AM 26.6 °F 16.2 °F 24.8 °F 93% 29.58 in 0.5 mi NNE 11.5 mph - 0.01 in Fog , Snow Snow
1:05 AM 26.6 °F 16.2 °F 24.8 °F 93% 29.59 in 0.2 mi NNE 11.5 mph - 0.02 in Fog , Snow Heavy Snow
1:19 AM 26.6 °F 15.7 °F 24.8 °F 93% 29.57 in 1.0 mi NNE 12.7 mph - 0.07 in Snow Light Snow
1:31 AM 26.6 °F 14.7 °F 24.8 °F 93% 29.57 in 3.0 mi NNE 15.0 mph - 0.07 in Snow Light Snow
1:53 AM 27.0 °F 16.1 °F 23.0 °F 85% 29.52 in 10.0 mi North 12.7 mph - 0.07 in   Overcast
2:16 AM 26.6 °F 15.2 °F 23.0 °F 86% 29.57 in 1.8 mi NNE 13.8 mph - 0.00 in Snow Light Snow
2:26 AM 26.6 °F 14.7 °F 23.0 °F 86% 29.57 in 0.8 mi NNE 15.0 mph - 0.01 in Snow Light Snow
2:42 AM 26.6 °F 15.7 °F 23.0 °F 86% 29.58 in 0.5 mi NNE 12.7 mph - 0.02 in Fog , Snow Snow
2:53 AM 26.1 °F 15.6 °F 24.1 °F 92% 29.52 in 0.2 mi North 11.5 mph - 0.04 in Fog , Snow Heavy Snow
3:11 AM 24.8 °F 14.0 °F 21.2 °F 86% 29.60 in 0.8 mi North 11.5 mph - 0.07 in Snow Light Snow
3:19 AM 24.8 °F 12.9 °F 21.2 °F 86% 29.60 in 2.0 mi North 13.8 mph - 0.08 in Snow Light Snow
3:26 AM 24.8 °F 12.9 °F 21.2 °F 86% 29.60 in 1.5 mi North 13.8 mph - 0.08 in Snow Light Snow
3:42 AM 24.8 °F 13.4 °F 21.2 °F 86% 29.60 in 0.8 mi North 12.7 mph - 0.10 in Snow Light Snow
3:49 AM 24.8 °F 12.9 °F 19.4 °F 80% 29.60 in 1.0 mi North 13.8 mph - 0.10 in Snow Light Snow
3:53 AM 24.1 °F 13.1 °F 19.9 °F 84% 29.65 in 1.5 mi North 11.5 mph - 0.10 in Snow Light Snow
4:03 AM 23.0 °F 11.7 °F 19.4 °F 86% 29.62 in 2.5 mi North 11.5 mph - 0.01 in Snow Light Snow
4:14 AM 23.0 °F 11.1 °F 19.4 °F 86% 29.63 in 4.0 mi NNE 12.7 mph 19.6 mph 0.01 in Snow Light Snow
4:53 AM 21.9 °F 9.8 °F 18.0 °F 85% 29.68 in 7.0 mi NE 12.7 mph - 0.01 in Snow Light Snow
5:53 AM 21.0 °F 11.4 °F 17.1 °F 85% 29.71 in 10.0 mi NNE 8.1 mph - 0.00 in   Overcast
6:53 AM 19.9 °F 9.3 °F 16.0 °F 85% 29.74 in 10.0 mi North 9.2 mph - N/A   Overcast
7:01 AM 19.4 °F 9.5 °F 15.8 °F 86% 29.66 in 10.0 mi North 8.1 mph - N/A   Overcast
7:35 AM 19.4 °F 8.6 °F 15.8 °F 86% 29.66 in 2.0 mi NNE 9.2 mph - N/A   Overcast
7:45 AM 19.4 °F 7.2 °F 15.8 °F 86% 29.66 in 2.0 mi North 11.5 mph - N/A   Overcast
7:53 AM 19.0 °F 5.6 °F 15.1 °F 85% 29.75 in 2.0 mi NNE 13.8 mph - N/A   Overcast
8:00 AM 19.4 °F 6.6 °F 15.8 °F 86% 29.65 in 3.0 mi NNE 12.7 mph - N/A   Overcast
8:25 AM 17.6 °F 4.3 °F 15.8 °F 93% 29.64 in 1.2 mi NNE 12.7 mph - N/A   Overcast
8:53 AM 18.0 °F 6.9 °F 15.1 °F 88% 29.75 in 1.2 mi North 9.2 mph - 0.00 in   Overcast
9:00 AM 17.6 °F 5.0 °F 15.8 °F 93% 29.65 in 0.8 mi North 11.5 mph 16.1 mph N/A   Overcast
9:07 AM 17.6 °F 6.4 °F 14.0 °F 86% 29.65 in 2.0 mi NNE 9.2 mph - N/A   Overcast
9:15 AM 17.6 °F 5.7 °F 15.8 °F 93% 29.65 in 0.8 mi North 10.4 mph - N/A   Overcast
9:35 AM 17.6 °F 3.7 °F 14.0 °F 86% 29.67 in 1.2 mi NNE 13.8 mph - 0.00 in Rain Light Freezing Rain
9:40 AM 17.6 °F 4.3 °F 14.0 °F 86% 29.67 in 1.5 mi NNE 12.7 mph - 0.00 in Snow Light Snow
9:53 AM 18.0 °F 4.8 °F 14.0 °F 84% 29.76 in 1.0 mi NNE 12.7 mph - 0.00 in Snow Light Snow
10:22 AM 17.6 °F 2.2 °F 12.2 °F 79% 29.67 in 1.0 mi NNE 17.3 mph - 0.00 in Snow Light Snow
10:32 AM 17.6 °F 2.7 °F 14.0 °F 86% 29.66 in 0.8 mi North 16.1 mph - 0.00 in Snow Light Snow
10:51 AM 17.6 °F 4.3 °F 14.0 °F 86% 29.69 in 1.2 mi NNE 12.7 mph - 0.00 in Snow Light Snow
10:53 AM 18.0 °F 5.4 °F 12.9 °F 81% 29.79 in 1.2 mi NNE 11.5 mph - 0.00 in Snow Light Snow
11:53 AM 17.1 °F 4.3 °F 10.9 °F 77% 29.80 in 1.2 mi NNE 11.5 mph - 0.00 in Snow Light Snow
12:53 PM 17.1 °F 5.8 °F 10.9 °F 77% 29.83 in 1.0 mi NNE 9.2 mph - 0.01 in Snow Light Snow
1:53 PM 17.1 °F 7.6 °F 10.9 °F 77% 29.84 in 1.8 mi NNE 6.9 mph - 0.01 in Snow Light Snow
2:53 PM 16.0 °F 6.3 °F 10.0 °F 77% 29.88 in 1.0 mi NNE 6.9 mph - 0.00 in Snow Light Snow
3:53 PM 14.0 °F 2.9 °F 9.0 °F 80% 29.93 in 2.0 mi North 8.1 mph - 0.01 in Snow Light Snow
4:53 PM 9.0 °F -2.2 °F 5.0 °F 84% 29.96 in 1.8 mi North 6.9 mph - 0.00 in Snow Light Snow
5:01 PM 8.6 °F 0.1 °F 5.0 °F 85% 29.79 in 2.5 mi North 4.6 mph - 0.00 in Snow Light Snow
5:09 PM 8.6 °F 0.1 °F 5.0 °F 85% 29.80 in 3.0 mi North 4.6 mph - 0.00 in Snow Light Snow
5:16 PM 10.4 °F -0.4 °F 5.0 °F 79% 29.80 in 3.0 mi North 6.9 mph - 0.00 in Snow Light Snow
5:39 PM 10.4 °F -0.4 °F 6.8 °F 85% 29.82 in 4.0 mi NNE 6.9 mph - 0.00 in Snow Light Snow
5:53 PM 10.9 °F 1.4 °F 7.0 °F 84% 30.00 in 4.0 mi NNE 5.8 mph - 0.00 in Snow Light Snow
6:53 PM 3.0 °F -8.0 °F -0.9 °F 84% 30.06 in 10.0 mi NE 5.8 mph - 0.00 in   Mostly Cloudy
7:22 PM 8.6 °F -2.6 °F 3.2 °F 79% 29.86 in 10.0 mi East 6.9 mph - N/A   Overcast
7:53 PM 10.0 °F 0.4 °F 3.9 °F 76% 30.04 in 8.0 mi East 5.8 mph - N/A   Overcast
8:33 PM 8.6 °F - 5.0 °F 85% 29.86 in 8.0 mi Calm Calm - 0.00 in   Overcast
8:42 PM 10.4 °F - 5.0 °F 79% 29.86 in 9.0 mi Calm Calm - 0.00 in   Overcast
8:51 PM 10.4 °F 0.8 °F 3.2 °F 73% 29.86 in 10.0 mi NNE 5.8 mph - 0.00 in   Overcast
8:53 PM 10.4 °F 2.2 °F 3.2 °F 73% 29.86 in 10.0 mi NE 4.6 mph - N/A   Overcast
9:53 PM 8.1 °F 1.4 °F 1.9 °F 76% 30.07 in 9.0 mi NNE 3.5 mph - 0.00 in Snow Light Snow
10:03 PM 8.6 °F - 3.2 °F 79% 29.86 in 2.5 mi Calm Calm - 0.00 in Snow Light Snow
10:26 PM 6.8 °F -2.0 °F 1.4 °F 79% 29.86 in 4.0 mi NW 4.6 mph - 0.00 in Snow Light Snow
10:40 PM 5.0 °F -4.1 °F 1.4 °F 85% 29.86 in 6.0 mi WNW 4.6 mph - 0.00 in Snow Light Snow
10:45 PM 5.0 °F -4.1 °F 1.4 °F 85% 29.86 in 8.0 mi NW 4.6 mph - 0.00 in   Overcast
10:53 PM 3.9 °F -3.4 °F -0.0 °F 84% 30.08 in 10.0 mi NW 3.5 mph - 0.00 in   Mostly Cloudy
11:53 PM -2.0 °F -15.4 °F -6.0 °F 83% 30.11 in 10.0 mi WSW 6.9 mph - N/A   Partly Cloudy